Regional Weather Roundup
Issued by NWS Kansas City/Pleasant Hill, MO

Home | Current Version | Previous Version | Text Only | Print | Product List | Glossary On
Versions: 1 2 3 4 5 6 7 8 9 10 11 12 13 14 15 16 17 18 19 20 21 22 23 24 25 26 27 28 29 30 31 32 33 34 35 36 37 38 39 40 41 42 43 44 45 46 47 48 49 50
000
ASUS43 KEAX 200910
RWREAX

WEATHER ROUNDUP FOR EASTERN KANSAS AND NORTHWEST MISSOURI
NATIONAL WEATHER SERVICE KANSAS CITY/PLEASANT HILL MO
400 AM CDT SUN APR 20 2014

KSZ040-057-103>105-MOZ028-029-037-043-201000-
...KANSAS CITY METROPOLITAN AREA...

CITY           SKY/WX    TMP DP  RH WIND       PRES   REMARKS
K.C. INTL      CLOUDY    59  46  62 S13       30.08F
K.C. DOWNTOWN  PTCLDY    62  46  55 S5        30.09S
LEES SUMMIT    PTCLDY    60  44  55 S7        30.11S
OLATHE - IXD   MOCLDY    56  45  66 SE6       30.10S
OLATHE - OJC   MOCLDY    55  45  68 SE5       30.10S
LAWRENCE       CLOUDY    57  47  69 E6        30.08F

$$

MOZ001>008-011>017-020>025-030>033-038>040-044>046-053-054-201000-
...NORTHERN AND CENTRAL MISSOURI...

CITY           SKY/WX    TMP DP  RH WIND       PRES   REMARKS
ST. JOSEPH     PTCLDY    58  45  62 S8        30.07S
MOSBY          FAIR      52  46  82 CALM      30.09F
WARRENSBURG    FAIR     N/A N/A N/A SE6       30.12S
WHITEMAN AFB   PTCLDY    56  39  52 S6        30.12S
CLINTON        MOCLDY    59  46  63 SE5       30.13S
SEDALIA        CLOUDY    60  43  53 S9        30.14S
WARSAW         NOT AVBL
MARSHALL         N/A     59  46  63 SE5       30.14R
CHILLICOTHE      N/A     55  46  71 SE5       30.11S
MOBERLY        MOCLDY    57  41  54 S7        30.15S
KIRKSVILLE     PTCLDY    50  42  74 S9        30.14R

$$

MOZ041-047>049-056>058-063>065-088>090-097-201000-
...EASTERN AND SOUTHERN MISSOURI...

CITY           SKY/WX    TMP DP  RH WIND       PRES   REMARKS
ST. LOUIS INTL MOCLDY    55  41  59 CALM      30.20R
SPIRIT OF STL  CLEAR     47  43  86 CALM      30.19R
COLUMBIA       PTCLDY    58  41  53 S12       30.16R
JEFFERSON CITY PTCLDY    54  41  61 SE5       30.17R
MEXICO         PTCLDY    52  43  71 SE9       30.17R
HANNIBAL       CLOUDY    61  37  41 S7        30.17R
ROLLA          MOCLDY    55  41  59 S10       30.17S
LEBANON        MOCLDY    57  43  58 S7        30.18S
OSAGE BEACH    PTCLDY    57  39  51 SE5       30.18S
SPRINGFIELD    CLOUDY    58  46  64 SE9       30.15S
BRANSON        CLOUDY    59  46  63 S6        30.18S
NEVADA         CLOUDY    55  46  71 S7        30.14R
JOPLIN         CLOUDY    60  48  64 S8        30.14R
WEST PLAINS    MOCLDY    50  40  68 CALM      30.19F

$$

IAZ060-094-KSZ022-034>040-054-083-096-NEZ052-066-093-201000-
...KANSAS...SOUTHEAST NEBRASKA AND IOWA...

CITY           SKY/WX    TMP DP  RH WIND       PRES   REMARKS
TOPEKA         CLOUDY    64  47  53 S3        30.08R
MANHATTAN      PTCLDY    64  48  56 S9G18     30.04S
EMPORIA        CLOUDY    57  47  69 S9        30.08R
CHANUTE        CLOUDY    54  46  74 S6        30.11R
WICHITA        MOCLDY    58  49  72 S9        30.07S
OMAHA          MOCLDY    64  45  49 S14       29.98F
LINCOLN        MOCLDY    64  46  52 S16G22    29.97R
FALLS CITY     PTCLDY    61  46  57 S9        30.04S
LAMONI         PTCLDY    58  43  57 S9        30.08S
DES MOINES     CLOUDY    61  44  53 S8        30.06S

$$




USA.gov is the U.S. government's official web portal to all federal, state and local government web resources and services.